Eielson Air Force Base, AK

11:13 PM AKST on February 08, 2016 (GMT -0900)
Eielson Air Force Base

Weather History for PAEI - July, 2013

Change the Weather History Date:

Tuesday, July 23, 2013

  Actual Average Record
Temperature  
Mean Temperature 65 °F -  
Max Temperature 77 °F 72 °F 86 °F (1955)
Min Temperature 53 °F 51 °F 43 °F (1951)
Growing Degree Days 15 (Base 50)    
Moisture  
Dew Point 51 °F    
Average Humidity 61    
Maximum Humidity 87    
Minimum Humidity 37    
Precipitation  
Precipitation 0.00 in - - ()
Sea Level Pressure  
Sea Level Pressure 30.09 in    
Wind  
Wind Speed 5 mph (West)    
Max Wind Speed 10 mph    
Max Gust Speed -    
Visibility 10 miles    
Events      
Averages and records for this station are not official NWS values.
T = Trace of Precipitation, MM = Missing Value Source: NWS Daily Summary

Daily Weather History Graph

Daily Weather History Graph

Search for Another Location

Airport or City:

Trip Planner

Search our weather history database for the weather conditions in past years. The results will help you decide how hot, cold, wet, or windy it might be!

Date:

Astronomy

Jul. 23, 2013 Rise Set
Actual Time 4:20 AM AKDT 11:26 PM AKDT
Civil Twilight 2:27 AM AKDT 1:22 AM AKDT
Nautical Twilight Sun does not rise Sun does not rise
Astronomical Twilight Sun does not rise Sun does not rise
Moon 10:36 PM AKDT (7/23) 6:48 AM AKDT (7/23)
Length of Visible Light 22h 55m
Length of Day
19h 05m
Full, 98% of the Moon is Illuminated
Jul 23
Full
Jul 29
Last Quarter
Aug 6
New
Aug 14
First Quarter
Aug 20
Full

Hourly Weather History & Observations

Time (AKDT) Temp. Dew Point Humidity Pressure Visibility Wind Dir Wind Speed Gust Speed Precip Events Conditions
12:55 AM 56.5 °F 51.1 °F 82% 30.13 in 10.0 mi Variable 5.8 mph - N/A   Overcast
1:55 AM 54.7 °F 50.2 °F 85% 30.13 in 10.0 mi Variable 5.8 mph - N/A   Overcast
2:55 AM 54.5 °F 49.8 °F 84% 30.12 in 10.0 mi Variable 4.6 mph - N/A   Mostly Cloudy
3:55 AM 53.6 °F 49.1 °F 85% 30.13 in 10.0 mi Variable 5.8 mph - N/A   Overcast
4:55 AM 53.1 °F 49.3 °F 87% 30.13 in 10.0 mi Variable 4.6 mph - N/A   Mostly Cloudy
5:55 AM 54.1 °F 50.2 °F 86% 30.14 in 10.0 mi Variable 3.5 mph - N/A   Overcast
6:55 AM 56.7 °F 51.1 °F 82% 30.13 in 10.0 mi Variable 3.5 mph - N/A   Overcast
7:55 AM 59.4 °F 52.9 °F 79% 30.13 in 10.0 mi Calm Calm - N/A   Overcast
8:55 AM 63.5 °F 52.3 °F 67% 30.13 in 10.0 mi Variable 3.5 mph - N/A   Overcast
9:55 AM 65.1 °F 52.9 °F 65% 30.13 in 10.0 mi Variable 5.8 mph - N/A   Overcast
10:55 AM 68.5 °F 54.5 °F 61% 30.12 in 10.0 mi Variable 3.5 mph - N/A   Overcast
11:55 AM 72.1 °F 53.1 °F 51% 30.12 in 10.0 mi NW 8.1 mph - N/A   Overcast
12:55 PM 72.5 °F 53.1 °F 50% 30.10 in 10.0 mi Variable 3.5 mph - N/A   Partly Cloudy
1:55 PM 75.2 °F 51.3 °F 43% 30.09 in 10.0 mi WSW 10.4 mph - N/A   Partly Cloudy
2:55 PM 75.6 °F 51.6 °F 43% 30.08 in 10.0 mi West 9.2 mph - N/A   Scattered Clouds
3:55 PM 75.9 °F 50.7 °F 41% 30.06 in 10.0 mi WNW 8.1 mph - N/A   Partly Cloudy
4:55 PM 75.9 °F 50.9 °F 41% 30.06 in 10.0 mi Variable 5.8 mph - N/A   Scattered Clouds
5:55 PM 77.2 °F 49.3 °F 37% 30.04 in 10.0 mi Variable 5.8 mph - N/A   Clear
6:55 PM 77.7 °F 49.3 °F 37% 30.03 in 10.0 mi Variable 4.6 mph - N/A   Clear
7:55 PM 77.5 °F 49.8 °F 38% 30.03 in 10.0 mi West 10.4 mph - N/A   Clear
8:55 PM 75.4 °F 51.4 °F 43% 30.02 in 10.0 mi Variable 4.6 mph - N/A   Clear
9:55 PM 73.4 °F 53.4 °F 49% 30.02 in 10.0 mi Calm Calm - N/A   Clear
10:55 PM 68.7 °F 54.1 °F 60% 30.02 in 10.0 mi Calm Calm - N/A   Clear
11:55 PM 64.0 °F 53.2 °F 68% 30.02 in 10.0 mi Variable 3.5 mph - N/A   Clear